User: anonymous   Login
Location: Fort Wayne
(41.1310°N, 85.1290°W)
Time: 09:54:37
(UTC-04:00)
Language:

OPAL - Orbit

View from above orbital plane
View from above orbital plane
View from above satellite
View from above satellite

Ground track
Ground track

The orbit data is extracted from the following two-line orbital elements,

1 26063U 00004C   14305.10453627  .00000159  00000-0  73841-4 0  1008
2 26063 100.2257 116.4576 0037179 131.8859 228.5503 14.36428355773685
Epoch (UTC): 01 November 2014 02:30:31
Eccentricity: 0.0037179
inclination: 100.2257°
perigee height: 744 km
apogee height: 797 km
right ascension of ascending node: 116.4576°
argument of perigee: 131.8859°
revolutions per day: 14.36428355
mean anomaly at epoch: 228.5503°
orbit number at epoch: 77368

The dashed part of the orbit path shows where the satellite is in the earth's shadow,  

DLR